This is the latest recevied weather packets stored in our database for station/object KA6UPU-1. If no packets are shown the sender has not sent any weather packets the latest 10 day(s).
| Time | Temp. | Humidity | Pressure | Rain* | Wind** | Luminosity | Snow |
|---|---|---|---|---|---|---|---|
| 1777506496 | 24.44° C | 44% | 1014.8 hPa | 0 mm | - | - | - |
| 1777506196 | 24.44° C | 42% | 1014.9 hPa | 0 mm | - | - | - |
| 1777505896 | 24.44° C | 44% | 1014.9 hPa | 0 mm | - | - | - |
| 1777505597 | 24.44° C | 41% | 1014.9 hPa | 0 mm | - | - | - |
| 1777505297 | 24.44° C | 42% | 1015 hPa | 0 mm | - | - | - |
| 1777504708 | 25° C | 41% | 1015.2 hPa | 0 mm | - | - | - |
| 1777504408 | 25° C | 41% | 1015.2 hPa | 0 mm | - | - | - |
| 1777504108 | 25.56° C | 40% | 1015.3 hPa | 0 mm | - | - | - |
| 1777503808 | 25.56° C | 39% | 1015.3 hPa | 0 mm | - | - | - |
| 1777503508 | 25.56° C | 38% | 1015.3 hPa | 0 mm | - | - | - |
| 1777503208 | 25.56° C | 38% | 1015.4 hPa | 0 mm | - | - | - |
| 1777502908 | 25.56° C | 38% | 1015.5 hPa | 0 mm | - | - | - |
| 1777502608 | 25.56° C | 37% | 1015.5 hPa | 0 mm | - | - | - |
| 1777502308 | 25.56° C | 36% | 1015.5 hPa | 0 mm | - | - | - |
| 1777502008 | 26.11° C | 37% | 1015.5 hPa | 0 mm | - | - | - |
| 1777501708 | 26.11° C | 38% | 1015.6 hPa | 0 mm | - | - | - |
| 1777501409 | 25.56° C | 37% | 1015.6 hPa | 0 mm | - | - | - |
| 1777500808 | 26.11° C | 36% | 1015.6 hPa | 0 mm | - | - | - |
| 1777500508 | 26.11° C | 38% | 1015.7 hPa | 0 mm | - | - | - |
| 1777500208 | 26.11° C | 41% | 1015.7 hPa | 0 mm | - | - | - |
| 1777499908 | 26.11° C | 42% | 1015.8 hPa | 0 mm | - | - | - |
| 1777499608 | 26.67° C | 40% | 1015.7 hPa | 0 mm | - | - | - |
| 1777499308 | 26.67° C | 43% | 1015.8 hPa | 0 mm | - | - | - |
| 1777499009 | 26.67° C | 42% | 1015.7 hPa | 0 mm | - | - | - |
| 1777498563 | 27.22° C | 43% | 1015.7 hPa | 0 mm | - | - | - |
* Rain latest hour (hover to see other rain measurements)
** Current wind speed in m/s (hover to see current wind gust speed)